This is the latest recevied weather packets stored in our database for station/object K8FJG-13. If no packets are shown the sender has not sent any weather packets the latest 10 day(s).
| Time | Temp. | Humidity | Pressure | Rain* | Wind** | Luminosity | Snow |
|---|---|---|---|---|---|---|---|
| 1777689094 | 3.33° C | 93% | 970.8 hPa | - | - | - | - |
| 1777688491 | 3.33° C | 93% | 970.8 hPa | - | - | - | - |
| 1777687888 | 2.78° C | 93% | 970.8 hPa | - | - | - | - |
| 1777687285 | 2.78° C | 93% | 970.7 hPa | - | - | - | - |
| 1777686682 | 2.78° C | 93% | 970.7 hPa | - | - | - | - |
| 1777686079 | 2.78° C | 93% | 970.5 hPa | - | - | - | - |
| 1777685475 | 2.22° C | 92% | 970.5 hPa | - | - | - | - |
| 1777684872 | 2.22° C | 92% | 970.4 hPa | - | - | - | - |
| 1777684269 | 2.78° C | 91% | 970.4 hPa | - | - | - | - |
| 1777683666 | 2.78° C | 90% | 970.3 hPa | - | - | - | - |
| 1777683063 | 3.33° C | 89% | 970.1 hPa | - | - | - | - |
| 1777682460 | 3.33° C | 87% | 970 hPa | - | - | - | - |
| 1777681857 | 3.89° C | 85% | 969.7 hPa | - | - | - | - |
| 1777681254 | 3.89° C | 84% | 969.6 hPa | - | - | - | - |
| 1777680650 | 4.44° C | 83% | 969.6 hPa | - | - | - | - |
| 1777680047 | 5° C | 81% | 969.6 hPa | - | - | - | - |
| 1777679444 | 5° C | 82% | 969.5 hPa | - | - | - | - |
| 1777678841 | 5° C | 81% | 969.6 hPa | - | - | - | - |
| 1777678238 | 5.56° C | 79% | 969.4 hPa | - | - | - | - |
| 1777677635 | 5.56° C | 76% | 969.3 hPa | - | - | - | - |
| 1777677032 | 6.11° C | 77% | 969.2 hPa | - | - | - | - |
| 1777676428 | 6.11° C | 78% | 968.9 hPa | - | - | - | - |
| 1777675825 | 6.11° C | 79% | 968.9 hPa | - | - | - | - |
| 1777675222 | 5.56° C | 79% | 968.9 hPa | - | - | - | - |
| 1777674619 | 5.56° C | 80% | 968.8 hPa | - | - | - | - |
* Rain since midnight (hover to see other rain measurements)
** Current wind speed in m/s (hover to see current wind gust speed)